sat.trackr.live / text

‹ back to catalog

STARLINK-35822

NORAD 66362 · 2025-254Q

PAYLOAD ACTIVE UNKNOWN

§ Identity

Operator
Country
US
Launch date
2025-11-06
Launch site
AFWTR
Launch vehicle
Mass (kg)
RCS (m²)

Purposes: comms

External: N2YO · Heavens-Above · Gunter

§ Orbital elements

Epoch: 2026-05-24T23:41:02.194080Z

Period
94.10 min
Inclination
53.1578°
Eccentricity
0.0001305
Mean motion
15.30208466 rev/d
Perigee alt
474.3 km
Apogee alt
476.1 km
Semi-major
6,853.3 km
B*
3.8353e-4
RAAN
238.3067°
Arg perigee
79.0226°
Mean anomaly
281.0921°
Rev number
3,065

§ Raw data

STARLINK-358221 66362U 25254Q   26144.98683095  .00011020  00000+0  38353-3 0  99942 66362  53.1578 238.3067 0001305  79.0226 281.0921 15.30208466 30650

JSON: /api/v1/satellites/66362 · /tle

For live sub-satellite position, see the globe view (requires WebGL).

§ Visibility from observer

Set your observer location to see the next 7 days of passes ≥ 10°. The values pass through the URL so the page stays shareable.

No JS? Fill the form by hand. The geolocation button needs JavaScript.